When you browse on this site, cookies collect data to enhance your experience and personalize the content and advertising you see.
Visit our Privacy Policy to learn more. By continuing to use the site, you agree to this use of cookies and data.
  • In Spain
  • List of Countries
  • For 7 days
  • Water Temperature
  • Satellite Maps
  • Weather Map
  • Weather Widgets
  • user-avatar
    Login

    Hourly Weather San Fernando de Apure

    Today, 22 April, Monday

    Time Temperature Precipitation Wind Pressure Humidity
    00:00 +34°C° 0 mm 2 mps 753 mmHg 43%
    01:00 +34°C° 0 mm 2 mps 753 mmHg 46%
    02:00 +33°C° 0 mm 3 mps 753 mmHg 50%
    03:00 +33°C° 0 mm 3 mps 753 mmHg 53%
    04:00 +31°C° 0 mm 3 mps 753 mmHg 55%
    05:00 +30°C° 0 mm 3 mps 753 mmHg 58%
    06:00 +32°C° 0 mm 4 mps 753 mmHg 58%
    07:00 +32°C° 0 mm 4 mps 753 mmHg 58%
    08:00 +32°C° 0 mm 5 mps 754 mmHg 57%
    09:00 +33°C° 0 mm 4 mps 754 mmHg 53%
    10:00 +35°C° 0 mm 4 mps 754 mmHg 49%
    11:00 +36°C° 0 mm 4 mps 754 mmHg 45%
    12:00 +37°C° 0 mm 3 mps 753 mmHg 41%
    13:00 +38°C° 0 mm 3 mps 752 mmHg 37%
    14:00 +40°C° 0 mm 3 mps 751 mmHg 33%
    15:00 +39°C° 0 mm 2 mps 751 mmHg 34%
    16:00 +39°C° 0 mm 2 mps 750 mmHg 34%
    17:00 +39°C° 0 mm 1 mps 750 mmHg 34%
    18:00 +37°C° 0 mm 1 mps 750 mmHg 35%
    19:00 +36°C° 0 mm 1 mps 750 mmHg 37%
    20:00 +35°C° 0 mm 1 mps 751 mmHg 39%
    21:00 +35°C° 0.1 mm 1 mps 751 mmHg 41%
    22:00 +34°C° 0.1 mm 1 mps 752 mmHg 43%
    23:00 +34°C° 0.1 mm 1 mps 752 mmHg 46%

    Tomorrow, 23 April, Tuesday

    Time Temperature Precipitation Wind Pressure Humidity
    00:00 +33°C° 0.2 mm 1 mps 752 mmHg 49%
    01:00 +32°C° 0.2 mm 1 mps 752 mmHg 53%
    02:00 +32°C° 0.2 mm 2 mps 752 mmHg 57%
    03:00 +31°C° 0.3 mm 2 mps 752 mmHg 60%
    04:00 +30°C° 0.3 mm 2 mps 752 mmHg 63%
    05:00 +30°C° 0.3 mm 2 mps 752 mmHg 66%
    06:00 +30°C° 0.1 mm 2 mps 753 mmHg 65%
    07:00 +30°C° 0.1 mm 3 mps 753 mmHg 65%
    08:00 +30°C° 0.1 mm 3 mps 754 mmHg 65%
    09:00 +30°C° 0.3 mm 3 mps 754 mmHg 64%
    10:00 +31°C° 0.3 mm 3 mps 754 mmHg 64%
    11:00 +31°C° 0.3 mm 3 mps 755 mmHg 63%
    12:00 +31°C° 0.2 mm 3 mps 754 mmHg 62%
    13:00 +32°C° 0.2 mm 2 mps 753 mmHg 60%
    14:00 +32°C° 0.2 mm 2 mps 752 mmHg 59%
    15:00 +32°C° 0 mm 2 mps 752 mmHg 59%
    16:00 +32°C° 0 mm 2 mps 751 mmHg 58%
    17:00 +32°C° 0 mm 1 mps 750 mmHg 58%
    18:00 +31°C° 0 mm 1 mps 751 mmHg 60%
    19:00 +31°C° 0 mm 1 mps 751 mmHg 62%
    20:00 +28°C° 0 mm 0 mps 752 mmHg 63%
    21:00 +28°C° 0 mm 0 mps 752 mmHg 64%
    22:00 +28°C° 0 mm 0 mps 753 mmHg 64%
    23:00 +27°C° 0 mm 0 mps 753 mmHg 65%

    Day after tomorrow, 24 April, Wednesday

    Time Temperature Precipitation Wind Pressure Humidity
    00:00 +27°C° 0.1 mm 0 mps 753 mmHg 66%
    01:00 +27°C° 0.1 mm 0 mps 753 mmHg 67%
    02:00 +27°C° 0.1 mm 0 mps 752 mmHg 68%
    03:00 +29°C° 0.1 mm 1 mps 752 mmHg 69%
    04:00 +28°C° 0.1 mm 1 mps 752 mmHg 70%
    05:00 +28°C° 0.1 mm 1 mps 752 mmHg 72%
    06:00 +29°C° 0.1 mm 1 mps 753 mmHg 70%
    07:00 +29°C° 0.1 mm 2 mps 754 mmHg 69%
    08:00 +30°C° 0.1 mm 2 mps 754 mmHg 68%
    09:00 +32°C° 0 mm 2 mps 755 mmHg 62%
    10:00 +34°C° 0 mm 2 mps 755 mmHg 56%
    11:00 +36°C° 0 mm 2 mps 755 mmHg 50%
    12:00 +36°C° 0.1 mm 2 mps 754 mmHg 49%
    13:00 +36°C° 0.1 mm 2 mps 753 mmHg 48%
    14:00 +36°C° 0.1 mm 1 mps 752 mmHg 46%
    15:00 +36°C° 0 mm 1 mps 752 mmHg 45%
    16:00 +36°C° 0 mm 1 mps 751 mmHg 43%
    17:00 +36°C° 0 mm 1 mps 751 mmHg 42%
    18:00 +35°C° 0 mm 1 mps 751 mmHg 44%
    19:00 +34°C° 0 mm 1 mps 752 mmHg 47%
    20:00 +33°C° 0 mm 1 mps 752 mmHg 50%
    21:00 +32°C° 0.2 mm 1 mps 753 mmHg 53%
    22:00 +31°C° 0.2 mm 1 mps 753 mmHg 56%
    23:00 +31°C° 0.2 mm 1 mps 754 mmHg 60%

    25 April, Thursday

    Time Temperature Precipitation Wind Pressure Humidity
    00:00 +30°C° 1.1 mm 1 mps 754 mmHg 66%
    01:00 +29°C° 1.1 mm 1 mps 753 mmHg 72%
    02:00 +28°C° 1.1 mm 1 mps 753 mmHg 78%
    03:00 +28°C° 0.6 mm 1 mps 753 mmHg 80%
    04:00 +28°C° 0.6 mm 1 mps 753 mmHg 82%
    05:00 +28°C° 0.6 mm 1 mps 753 mmHg 83%
    06:00 +28°C° 0.4 mm 2 mps 754 mmHg 80%
    07:00 +29°C° 0.4 mm 2 mps 754 mmHg 76%
    08:00 +30°C° 0.4 mm 2 mps 755 mmHg 72%
    09:00 +32°C° 0 mm 2 mps 755 mmHg 64%
    10:00 +35°C° 0 mm 2 mps 755 mmHg 57%
    11:00 +37°C° 0 mm 3 mps 755 mmHg 49%
    12:00 +37°C° 0 mm 2 mps 754 mmHg 45%
    13:00 +38°C° 0 mm 2 mps 754 mmHg 42%
    14:00 +39°C° 0 mm 2 mps 753 mmHg 39%
    15:00 +37°C° 0 mm 1 mps 752 mmHg 40%
    16:00 +37°C° 0 mm 1 mps 752 mmHg 42%
    17:00 +34°C° 0 mm 0 mps 752 mmHg 43%
    18:00 +35°C° 0.3 mm 1 mps 752 mmHg 49%
    19:00 +33°C° 0.3 mm 1 mps 753 mmHg 55%
    20:00 +32°C° 0.3 mm 1 mps 753 mmHg 61%
    21:00 +31°C° 0.2 mm 2 mps 754 mmHg 66%
    22:00 +31°C° 0.2 mm 2 mps 754 mmHg 70%
    23:00 +30°C° 0.2 mm 2 mps 755 mmHg 75%

    26 April, Friday

    Time Temperature Precipitation Wind Pressure Humidity
    00:00 +29°C° 2.1 mm 2 mps 754 mmHg 77%
    01:00 +29°C° 2.1 mm 1 mps 754 mmHg 80%
    02:00 +28°C° 2.1 mm 1 mps 754 mmHg 83%
    03:00 +28°C° 2.9 mm 1 mps 754 mmHg 84%
    04:00 +28°C° 2.9 mm 1 mps 754 mmHg 86%
    05:00 +28°C° 2.9 mm 1 mps 754 mmHg 87%
    06:00 +28°C° 1.3 mm 1 mps 755 mmHg 86%
    07:00 +28°C° 1.3 mm 1 mps 755 mmHg 85%
    08:00 +26°C° 1.3 mm 0 mps 756 mmHg 85%
    09:00 +28°C° 0.2 mm 0 mps 756 mmHg 77%
    10:00 +30°C° 0.2 mm 0 mps 756 mmHg 70%
    11:00 +31°C° 0.2 mm 0 mps 756 mmHg 62%
    12:00 +32°C° 0.1 mm 0 mps 755 mmHg 59%
    13:00 +33°C° 0.1 mm 0 mps 754 mmHg 56%
    14:00 +33°C° 0.1 mm 0 mps 753 mmHg 53%
    15:00 +35°C° 0 mm 1 mps 752 mmHg 53%
    16:00 +35°C° 0 mm 1 mps 752 mmHg 53%
    17:00 +34°C° 0 mm 1 mps 751 mmHg 54%
    18:00 +33°C° 0 mm 1 mps 752 mmHg 57%
    19:00 +32°C° 0 mm 1 mps 753 mmHg 61%
    20:00 +31°C° 0 mm 1 mps 753 mmHg 65%
    21:00 +31°C° 0.3 mm 1 mps 753 mmHg 68%
    22:00 +30°C° 0.3 mm 1 mps 754 mmHg 71%
    23:00 +30°C° 0.3 mm 1 mps 754 mmHg 74%

    27 April, Saturday

    Time Temperature Precipitation Wind Pressure Humidity
    00:00 +29°C° 3.6 mm 1 mps 754 mmHg 77%
    01:00 +29°C° 3.6 mm 1 mps 753 mmHg 80%
    02:00 +29°C° 3.6 mm 1 mps 752 mmHg 83%
    03:00 +28°C° 2.1 mm 1 mps 753 mmHg 83%
    04:00 +28°C° 2.1 mm 1 mps 753 mmHg 83%
    05:00 +28°C° 2.1 mm 1 mps 753 mmHg 83%
    06:00 +29°C° 0 mm 1 mps 753 mmHg 81%
    07:00 +29°C° 0 mm 2 mps 754 mmHg 79%
    08:00 +30°C° 0 mm 2 mps 755 mmHg 77%
    09:00 +31°C° 0 mm 2 mps 754 mmHg 69%
    10:00 +34°C° 0 mm 3 mps 754 mmHg 62%
    11:00 +35°C° 0 mm 4 mps 754 mmHg 54%
    12:00 +36°C° 0 mm 3 mps 753 mmHg 50%
    13:00 +37°C° 0 mm 3 mps 752 mmHg 45%
    14:00 +39°C° 0 mm 3 mps 751 mmHg 41%
    15:00 +39°C° 0 mm 2 mps 751 mmHg 40%
    16:00 +38°C° 0 mm 2 mps 751 mmHg 38%
    17:00 +38°C° 0 mm 2 mps 750 mmHg 37%
    18:00 +36°C° 0 mm 1 mps 751 mmHg 40%
    19:00 +35°C° 0 mm 1 mps 752 mmHg 44%
    20:00 +33°C° 0 mm 1 mps 752 mmHg 48%
    21:00 +32°C° 0.5 mm 2 mps 753 mmHg 58%
    22:00 +31°C° 0.5 mm 2 mps 753 mmHg 68%
    23:00 +30°C° 0.5 mm 2 mps 754 mmHg 78%
    Show more